Fairbanks, AK

5:24 AM AKST on February 22, 2017 (GMT -0900)
Fairbanks International

Weather History for PAFA - February, 2013

Change the Weather History Date:

Monday, February 25, 2013

  Actual Average Record
Temperature  
Mean Temperature -4 °F 3 °F  
Max Temperature 12 °F 16 °F 47 °F (1921)
Min Temperature -21 °F -10 °F -51 °F (1932)
Degree Days  
Heating Degree Days 69 62  
Month to date heating degree days 1685 1673  
Since 1 July heating degree days 10803 10205  
Cooling Degree Days 0 0  
Month to date cooling degree days 0 0  
Year to date cooling degree days 0 0  
Moisture  
Dew Point -14 °F    
Average Humidity 72    
Maximum Humidity 86    
Minimum Humidity 49    
Precipitation  
Precipitation 0.00 in 0.02 in 0.40 in (1989)
Month to date precipitation 0.48 0.39  
Year to date precipitation 1.27 0.97  
Snow  
Snow 0.00 in 0.20 in 5.00 in (2011)
Month to date snowfall 10.7 7.4  
Since 1 July snowfall 50.5 55.6  
Snow Depth 23.00 in    
Sea Level Pressure  
Sea Level Pressure 29.80 in    
Wind  
Wind Speed 0 mph (South)    
Max Wind Speed 5 mph    
Max Gust Speed -    
Visibility 10 miles    
Events      
T = Trace of Precipitation, MM = Missing Value Source: NWS Daily Summary

Daily Weather History Graph

Daily Weather History Graph

Search for Another Location

Airport or City:

Trip Planner

Search our weather history database for the weather conditions in past years. The results will help you decide how hot, cold, wet, or windy it might be!

Date:

Astronomy

Feb. 25, 2013 Rise Set
Actual Time 8:13 AM AKST 5:56 PM AKST
Civil Twilight 7:23 AM AKST 6:46 PM AKST
Nautical Twilight 6:26 AM AKST 7:43 PM AKST
Astronomical Twilight 5:29 AM AKST 8:41 PM AKST
Moon 6:47 PM AKST (2/25) 7:31 AM AKST (2/25)
Length of Visible Light 11h 23m
Length of Day
9h 43m
Full, 100% of the Moon is Illuminated
Feb 25
Full
Mar 4
Last Quarter
Mar 11
New
Mar 19
First Quarter
Mar 27
Full

Hourly Weather History & Observations

Time (AKST) Temp. Windchill Dew Point Humidity Pressure Visibility Wind Dir Wind Speed Gust Speed Precip Events Conditions
12:53 AM -15.0 °F - -20.0 °F 78% 29.77 in 10.0 mi Calm Calm - N/A   Mostly Cloudy
1:53 AM -14.1 °F - -20.0 °F 75% 29.78 in 10.0 mi Calm Calm - N/A   Mostly Cloudy
3:53 AM -18.0 °F - -23.1 °F 78% 29.80 in 10.0 mi Calm Calm - N/A   Mostly Cloudy
4:53 AM -16.1 °F - -20.0 °F 82% 29.81 in 10.0 mi Calm Calm - N/A   Mostly Cloudy
5:53 AM -17.0 °F - -22.0 °F 78% 29.81 in 10.0 mi Calm Calm - N/A   Mostly Cloudy
6:53 AM -17.0 °F - -20.9 °F 82% 29.81 in 10.0 mi Calm Calm - N/A   Mostly Cloudy
7:53 AM -18.0 °F - -22.0 °F 82% 29.81 in 10.0 mi Calm Calm - N/A   Mostly Cloudy
8:53 AM -17.0 °F - -23.1 °F 74% 29.82 in 10.0 mi Calm Calm - N/A   Partly Cloudy
9:53 AM -14.1 °F - -18.0 °F 82% 29.81 in 10.0 mi Calm Calm - N/A   Partly Cloudy
10:53 AM -8.0 °F - -11.0 °F 86% 29.81 in 10.0 mi Calm Calm - N/A   Partly Cloudy
11:53 AM -4.0 °F - -11.0 °F 72% 29.81 in 10.0 mi Calm Calm - N/A   Partly Cloudy
12:53 PM 1.9 °F -5.6 °F -7.1 °F 66% 29.80 in 10.0 mi SSE 3.5 mph - N/A   Partly Cloudy
1:53 PM 6.1 °F - -6.0 °F 58% 29.78 in 10.0 mi Calm Calm - N/A   Partly Cloudy
2:53 PM 6.1 °F - -4.0 °F 63% 29.78 in 10.0 mi Calm Calm - N/A   Partly Cloudy
3:53 PM 3.9 °F - -5.1 °F 66% 29.78 in 10.0 mi Calm Calm - N/A   Partly Cloudy
4:53 PM 12.0 °F - -0.0 °F 59% 29.76 in 10.0 mi Calm Calm - N/A   Partly Cloudy
5:53 PM 9.0 °F 0.6 °F -2.0 °F 61% 29.77 in 10.0 mi SSW 4.6 mph - N/A   Partly Cloudy
6:53 PM 1.9 °F -5.6 °F -6.0 °F 69% 29.79 in 10.0 mi SSW 3.5 mph - N/A   Partly Cloudy
7:53 PM -6.0 °F - -11.0 °F 79% 29.80 in 10.0 mi Calm Calm - N/A   Partly Cloudy
8:53 PM -6.0 °F - -11.0 °F 79% 29.82 in 10.0 mi Calm Calm - N/A   Clear
9:53 PM -11.9 °F - -17.0 °F 78% 29.81 in 10.0 mi Calm Calm - N/A   Partly Cloudy
10:53 PM -9.0 °F - -13.0 °F 83% 29.81 in 10.0 mi Calm Calm - N/A   Partly Cloudy
11:53 PM -13.0 °F - -18.0 °F 78% 29.82 in 10.0 mi Calm Calm - N/A   Partly Cloudy